This is the latest recevied weather packets stored in our database for station/object AB4KY. If no packets are shown the sender has not sent any weather packets the latest 10 day(s).
| Time | Temp. | Humidity | Pressure | Rain* | Wind** | Luminosity | Snow |
|---|---|---|---|---|---|---|---|
| 1778014943 | 16.11° C | 99% | 1005.8 hPa | 0.51 mm | - | 57 W/m² | - |
| 1778014641 | 16.11° C | 99% | 1005.8 hPa | 0 mm | - | 45 W/m² | - |
| 1778014339 | 16.11° C | 99% | 1006.1 hPa | 0 mm | - | 49 W/m² | - |
| 1778014035 | 16.11° C | 99% | 1006.2 hPa | 0 mm | - | 46 W/m² | - |
| 1778013733 | 16.11° C | 99% | 1006.3 hPa | 0 mm | - | 56 W/m² | - |
| 1778013430 | 15.56° C | 99% | 1006.1 hPa | 0 mm | - | 31 W/m² | - |
| 1778013127 | 16.11° C | 99% | 1006.3 hPa | 0.51 mm | - | 35 W/m² | - |
| 1778012823 | 16.11° C | 99% | 1006.2 hPa | 1.27 mm | - | 53 W/m² | - |
| 1778012518 | 16.11° C | 99% | 1006.4 hPa | 2.29 mm | - | 62 W/m² | - |
| 1778012215 | 15.56° C | 99% | 1006.5 hPa | 4.32 mm | - | 54 W/m² | - |
| 1778011913 | 15.56° C | 99% | 1006.4 hPa | 8.38 mm | - | 21 W/m² | - |
| 1778011611 | 15.56° C | 99% | 1007 hPa | 11.43 mm | - | 24 W/m² | - |
| 1778011307 | 15.56° C | 99% | 1006.8 hPa | 6.6 mm | - | 29 W/m² | - |
| 1778011003 | 15.56° C | 99% | 1007.2 hPa | 3.05 mm | - | 24 W/m² | - |
| 1778010701 | 16.11° C | 99% | 1006.8 hPa | 5.33 mm | - | 29 W/m² | - |
| 1778010398 | 15.56° C | 99% | 1007.2 hPa | 8.89 mm | - | 31 W/m² | - |
| 1778010094 | 16.11° C | 99% | 1007 hPa | 6.1 mm | - | 18 W/m² | - |
| 1778009791 | 16.11° C | 99% | 1007 hPa | 1.78 mm | - | 20 W/m² | - |
| 1778009487 | 16.11° C | 99% | 1006.8 hPa | 1.78 mm | - | 51 W/m² | - |
| 1778009186 | 16.11° C | 99% | 1007.2 hPa | 2.29 mm | - | 39 W/m² | - |
| 1778008883 | 16.11° C | 99% | 1007 hPa | 1.78 mm | - | 72 W/m² | - |
| 1778008582 | 16.11° C | 99% | 1007 hPa | 1.27 mm | - | 55 W/m² | - |
| 1778008279 | 16.11° C | 99% | 1007.2 hPa | 1.78 mm | - | 59 W/m² | - |
| 1778007974 | 16.11° C | 99% | 1007.1 hPa | 1.78 mm | - | 59 W/m² | - |
| 1778007670 | 15.56° C | 99% | 1007.4 hPa | 3.05 mm | - | 75 W/m² | - |
* Rain latest hour (hover to see other rain measurements)
** Current wind speed in m/s (hover to see current wind gust speed)